| time (UTC) | temp F | wind direction | speed knots | gust knots | rain 1hr in | rain 24hr in | rain mn in | humidity % | barometer mb |
| 20260504185712 | 56 | 215 | 7.8 | 13.0 | 0.12 | 0.28 | 0.28 | 87 | 1012.3 |
| 20260504185210 | 56 | 292 | 4.3 | 7.8 | 0.12 | 0.28 | 0.28 | 89 | 1012.2 |
| 20260504184713 | 57 | 267 | 4.3 | 8.7 | 0.11 | 0.26 | 0.26 | 90 | 1012.0 |
| 20260504184218 | 57 | 278 | 1.7 | 11.3 | 0.10 | 0.24 | 0.24 | 91 | 1011.9 |
| 20260504183714 | 57 | 230 | 3.5 | 11.3 | 0.09 | 0.24 | 0.24 | 91 | 1011.6 |
| 20260504183212 | 57 | 243 | 3.5 | 8.7 | 0.10 | 0.24 | 0.24 | 91 | 1011.5 |
| 20260504182718 | 57 | 262 | 5.2 | 12.2 | 0.10 | 0.24 | 0.24 | 91 | 1011.5 |
| 20260504182214 | 57 | 268 | 5.2 | 12.2 | 0.10 | 0.24 | 0.24 | 91 | 1011.4 |
| 20260504181209 | 57 | 255 | 3.5 | 9.6 | 0.10 | 0.23 | 0.23 | 91 | 1011.6 |
| 20260504180719 | 57 | 296 | 3.5 | 8.7 | 0.06 | 0.18 | 0.18 | 91 | 1011.5 |
| 20260504180207 | 57 | 268 | 4.3 | 11.3 | 0.06 | 0.17 | 0.17 | 91 | 1011.4 |
| 20260504175713 | 57 | 258 | 4.3 | 11.3 | 0.06 | 0.17 | 0.17 | 91 | 1011.5 |
| 20260504175214 | 57 | 244 | 6.1 | 11.3 | 0.09 | 0.16 | 0.16 | 91 | 1011.4 |
| 20260504174712 | 57 | 246 | 4.3 | 7.8 | 0.12 | 0.15 | 0.15 | 91 | 1011.3 |
| 20260504174216 | 57 | 229 | 3.5 | 8.7 | 0.13 | 0.14 | 0.14 | 91 | 1011.2 |
| 20260504173705 | 57 | 255 | 3.5 | 11.3 | 0.13 | 0.13 | 0.13 | 91 | 1011.3 |
| 20260504173218 | 56 | 248 | 4.3 | 11.3 | 0.13 | 0.13 | 0.13 | 91 | 1011.2 |
| 20260504172706 | 56 | 264 | 5.2 | 12.2 | 0.13 | 0.13 | 0.13 | 91 | 1011.2 |
| 20260504172207 | 56 | 243 | 6.1 | 12.2 | 0.12 | 0.13 | 0.13 | 91 | 1011.2 |
| 20260504171718 | 56 | 271 | 6.1 | 13.9 | 0.12 | 0.13 | 0.13 | 91 | 1011.1 |
| 20260504171219 | 56 | 271 | 7.0 | 13.9 | 0.12 | 0.13 | 0.13 | 91 | 1011.1 |
| 20260504170715 | 56 | 241 | 7.8 | 14.8 | 0.11 | 0.12 | 0.12 | 91 | 1011.0 |
| 20260504170209 | 56 | 232 | 6.1 | 15.6 | 0.11 | 0.12 | 0.12 | 90 | 1011.0 |
| 20260504160211 | 60 | 49 | 7.0 | 14.8 | 0.00 | 0.01 | 0.01 | 86 | 1009.5 |
| 20260504150707 | 62 | 59 | 7.8 | 16.5 | 0.00 | 0.01 | 0.01 | 79 | 1009.8 |
| 20260504150207 | 63 | 16 | 7.8 | 16.5 | 0.00 | 0.01 | 0.01 | 79 | 1009.8 |
| 20260504141214 | 65 | 5 | 10.4 | 16.5 | 0.00 | 0.01 | 0.01 | 77 | 1009.2 |
| 20260504130706 | 65 | 2 | 8.7 | 17.4 | 0.00 | 0.01 | 0.01 | 75 | 1010.3 |
| 20260504130219 | 65 | 4 | 8.7 | 16.5 | 0.00 | 0.01 | 0.01 | 76 | 1010.4 |
| 20260504120212 | 66 | 358 | 8.7 | 13.9 | 0.00 | 0.01 | 0.01 | 75 | 1011.1 |
| 20260504110709 | 65 | 9 | 6.1 | 10.4 | 0.01 | 0.01 | 0.01 | 78 | 1011.6 |
| 20260504110214 | 65 | 4 | 6.1 | 7.8 | 0.01 | 0.01 | 0.01 | 81 | 1011.7 |
| 20260504100216 | 63 | 59 | 1.7 | 5.2 | 0.00 | 0.00 | 0.00 | 82 | 1012.3 |
| 20260504081715 | 62 | 188 | 1.7 | 4.3 | 0.00 | 0.00 | 0.00 | 80 | 1012.6 |
| 20260504081216 | 62 | 209 | 0.9 | 4.3 | 0.00 | 0.00 | 0.00 | 80 | 1012.7 |
| 20260504080714 | 62 | 229 | 0.9 | 4.3 | 0.00 | 0.00 | 0.00 | 81 | 1012.7 |
| 20260504070217 | 60 | 0 | 0.0 | 2.6 | 0.00 | 0.00 | 0.00 | 87 | 1012.3 |
| 20260504060210 | 58 | 0 | 0.0 | 0.9 | 0.00 | 0.00 | 0.00 | 91 | 1011.6 |
| 20260504050711 | 56 | 165 | 0.9 | 2.6 | 0.00 | 0.00 | 0.00 | 92 | 1011.4 |
| 20260504050217 | 56 | 178 | 0.9 | 1.7 | 0.00 | 0.00 | 0.00 | 92 | 1011.5 |
| 20260504045717 | 56 | 210 | 0.9 | 2.6 | 0.00 | 0.00 | 0.00 | 92 | 1011.3 |
| 20260504045211 | 56 | 178 | 0.0 | 2.6 | 0.00 | 0.00 | 0.00 | 92 | 1011.4 |
| 20260504044708 | 55 | 160 | 0.9 | 2.6 | 0.00 | 0.00 | 0.00 | 92 | 1011.4 |
| 20260504044217 | 55 | 230 | 0.0 | 1.7 | 0.00 | 0.00 | 0.00 | 92 | 1011.3 |
| 20260504043712 | 55 | 0 | 0.0 | 1.7 | 0.00 | 0.00 | 0.00 | 92 | 1011.2 |
| 20260504043211 | 55 | 203 | 0.0 | 0.9 | 0.00 | 0.00 | 0.00 | 91 | 1011.3 |
| 20260504042711 | 56 | 0 | 0.0 | 1.7 | 0.00 | 0.00 | 0.00 | 91 | 1011.3 |
| 20260504041706 | 56 | 87 | 0.9 | 2.6 | 0.00 | 0.00 | 0.00 | 91 | 1011.2 |
| 20260504040705 | 56 | 189 | 0.0 | 1.7 | 0.00 | 0.00 | 0.00 | 91 | 1011.2 |
| 20260504040210 | 56 | 139 | 0.0 | 1.7 | 0.00 | 0.00 | 0.00 | 91 | 1011.3 |
| 20260504035705 | 56 | 149 | 1.7 | 1.7 | 0.00 | 0.00 | 0.00 | 91 | 1011.3 |
| 20260504034716 | 56 | 188 | 0.9 | 1.7 | 0.00 | 0.00 | 0.00 | 91 | 1011.4 |
| 20260504034205 | 56 | 205 | 0.0 | 0.9 | 0.00 | 0.00 | 0.00 | 91 | 1011.3 |
| 20260504033711 | 56 | 0 | 0.0 | 0.9 | 0.00 | 0.00 | 0.00 | 91 | 1011.2 |
| 20260504033217 | 56 | 210 | 0.0 | 0.9 | 0.00 | 0.00 | 0.00 | 91 | 1011.2 |
| 20260504032719 | 56 | 88 | 0.0 | 0.9 | 0.00 | 0.00 | 0.00 | 91 | 1011.3 |
| 20260504032212 | 56 | 120 | 0.0 | 1.7 | 0.00 | 0.00 | 0.00 | 91 | 1011.2 |
| 20260504031717 | 56 | 126 | 0.0 | 1.7 | 0.00 | 0.00 | 0.00 | 91 | 1011.1 |
| 20260504031208 | 56 | 156 | 1.7 | 1.7 | 0.00 | 0.00 | 0.00 | 90 | 1011.2 |
| 20260504030710 | 56 | 154 | 0.9 | 1.7 | 0.00 | 0.00 | 0.00 | 90 | 1011.3 |
| 20260504025709 | 57 | 268 | 0.0 | 0.9 | 0.00 | 0.00 | 0.00 | 91 | 1011.4 |
| 20260504024714 | 57 | 0 | 0.0 | 0.0 | 0.00 | 0.00 | 0.00 | 91 | 1011.5 |
| 20260504023716 | 57 | 0 | 0.0 | 1.7 | 0.00 | 0.00 | 0.00 | 90 | 1011.4 |
| 20260504022707 | 57 | 265 | 0.9 | 3.5 | 0.00 | 0.00 | 0.00 | 90 | 1011.6 |
| 20260504022209 | 57 | 333 | 0.9 | 2.6 | 0.00 | 0.00 | 0.00 | 90 | 1011.6 |
| 20260504021708 | 57 | 344 | 0.9 | 2.6 | 0.00 | 0.00 | 0.00 | 90 | 1011.7 |
| 20260504020717 | 57 | 0 | 0.0 | 2.6 | 0.00 | 0.00 | 0.00 | 90 | 1011.6 |
| 20260504020216 | 57 | 320 | 0.0 | 2.6 | 0.00 | 0.00 | 0.00 | 90 | 1011.6 |
| 20260504015706 | 57 | 5 | 0.9 | 3.5 | 0.00 | 0.00 | 0.00 | 89 | 1012.0 |
| 20260504014706 | 57 | 344 | 1.7 | 3.5 | 0.00 | 0.00 | 0.00 | 89 | 1011.7 |
| 20260504014207 | 57 | 355 | 0.9 | 4.3 | 0.00 | 0.00 | 0.00 | 89 | 1011.9 |
| 20260504013714 | 58 | 4 | 1.7 | 4.3 | 0.00 | 0.00 | 0.00 | 89 | 1011.7 |
| 20260504013216 | 58 | 305 | 2.6 | 5.2 | 0.00 | 0.00 | 0.00 | 89 | 1011.7 |
| 20260504012210 | 58 | 1 | 3.5 | 5.2 | 0.00 | 0.00 | 0.00 | 89 | 1011.7 |
| 20260504011718 | 58 | 35 | 2.6 | 3.5 | 0.00 | 0.00 | 0.00 | 88 | 1011.7 |
| 20260504011209 | 58 | 5 | 1.7 | 3.5 | 0.00 | 0.00 | 0.00 | 88 | 1011.7 |
| 20260504010719 | 58 | 1 | 1.7 | 3.5 | 0.00 | 0.00 | 0.00 | 88 | 1011.7 |
| 20260504010216 | 58 | 5 | 1.7 | 4.3 | 0.00 | 0.00 | 0.00 | 88 | 1011.5 |
| 20260504005719 | 58 | 21 | 1.7 | 6.1 | 0.00 | 0.00 | 0.00 | 88 | 1011.7 |
| 20260504005215 | 58 | 8 | 2.6 | 6.1 | 0.00 | 0.00 | 0.00 | 88 | 1011.7 |
| 20260504004708 | 58 | 12 | 3.5 | 7.0 | 0.00 | 0.00 | 0.00 | 88 | 1011.7 |
| 20260504004213 | 58 | 358 | 4.3 | 7.0 | 0.00 | 0.00 | 0.00 | 88 | 1011.6 |
| 20260504003707 | 58 | 12 | 4.3 | 7.0 | 0.00 | 0.00 | 0.00 | 88 | 1011.6 |
| 20260504003206 | 58 | 16 | 4.3 | 5.2 | 0.00 | 0.00 | 0.00 | 88 | 1011.6 |
| 20260504002716 | 58 | 1 | 3.5 | 4.3 | 0.00 | 0.00 | 0.00 | 88 | 1011.7 |
| 20260504002212 | 58 | 11 | 2.6 | 6.1 | 0.00 | 0.00 | 0.00 | 88 | 1012.0 |
| 20260504001715 | 58 | 60 | 0.9 | 6.1 | 0.00 | 0.00 | 0.00 | 87 | 1012.0 |
| 20260504001219 | 58 | 22 | 3.5 | 6.1 | 0.00 | 0.00 | 0.00 | 87 | 1012.0 |
| 20260504000704 | 58 | 25 | 2.6 | 7.0 | 0.00 | 0.00 | 0.00 | 87 | 1012.0 |
| 20260504000213 | 58 | 68 | 4.3 | 7.0 | 0.00 | 0.00 | 0.00 | 87 | 1012.0 |
| 20260503235718 | 59 | 67 | 3.5 | 6.1 | 0.00 | 0.00 | 0.00 | 86 | 1012.0 |
| 20260503234714 | 59 | 8 | 3.5 | 6.1 | 0.00 | 0.00 | 0.00 | 87 | 1012.0 |
| 20260503234217 | 59 | 39 | 2.6 | 4.3 | 0.00 | 0.00 | 0.00 | 86 | 1012.2 |
| 20260503233706 | 59 | 12 | 2.6 | 4.3 | 0.00 | 0.00 | 0.00 | 86 | 1012.2 |
| 20260503233215 | 59 | 73 | 2.6 | 5.2 | 0.00 | 0.00 | 0.00 | 85 | 1012.3 |
| 20260503232715 | 59 | 74 | 1.7 | 7.0 | 0.00 | 0.00 | 0.00 | 84 | 1012.3 |
| 20260503232205 | 59 | 19 | 2.6 | 7.0 | 0.00 | 0.00 | 0.00 | 84 | 1012.2 |
| 20260503231712 | 59 | 36 | 3.5 | 6.1 | 0.00 | 0.00 | 0.00 | 84 | 1012.3 |
| 20260503231210 | 60 | 59 | 3.5 | 7.8 | 0.00 | 0.00 | 0.00 | 83 | 1012.3 |
| 20260503230713 | 60 | 30 | 2.6 | 7.8 | 0.00 | 0.00 | 0.00 | 83 | 1012.3 |
| 20260503230205 | 60 | 42 | 3.5 | 6.1 | 0.00 | 0.00 | 0.00 | 83 | 1012.3 |
| 20260503225711 | 60 | 14 | 3.5 | 7.0 | 0.00 | 0.00 | 0.00 | 83 | 1012.3 |
| 20260503225213 | 60 | 5 | 4.3 | 7.0 | 0.00 | 0.00 | 0.00 | 83 | 1012.3 |
| 20260503224217 | 60 | 52 | 3.5 | 7.0 | 0.00 | 0.00 | 0.00 | 83 | 1012.4 |
| 20260503223717 | 60 | 4 | 3.5 | 7.0 | 0.00 | 0.00 | 0.00 | 83 | 1012.3 |
| 20260503223210 | 60 | 12 | 4.3 | 7.8 | 0.00 | 0.00 | 0.00 | 84 | 1012.4 |
| 20260503222717 | 60 | 16 | 3.5 | 8.7 | 0.00 | 0.00 | 0.00 | 83 | 1012.4 |
| 20260503222218 | 60 | 26 | 4.3 | 8.7 | 0.00 | 0.00 | 0.00 | 82 | 1012.3 |
| 20260503221711 | 60 | 39 | 4.3 | 9.6 | 0.00 | 0.00 | 0.00 | 81 | 1012.3 |
| 20260503221211 | 60 | 57 | 5.2 | 9.6 | 0.00 | 0.00 | 0.00 | 81 | 1012.3 |
| 20260503220717 | 60 | 30 | 5.2 | 11.3 | 0.00 | 0.00 | 0.00 | 81 | 1012.2 |
| 20260503220212 | 60 | 21 | 5.2 | 11.3 | 0.00 | 0.00 | 0.00 | 81 | 1012.2 |
| 20260503215715 | 60 | 355 | 6.1 | 11.3 | 0.00 | 0.00 | 0.00 | 82 | 1012.2 |
| 20260503215218 | 60 | 26 | 6.1 | 10.4 | 0.00 | 0.00 | 0.00 | 82 | 1012.3 |
| 20260503214212 | 60 | 9 | 6.1 | 9.6 | 0.00 | 0.00 | 0.00 | 82 | 1012.3 |
| 20260503213713 | 60 | 0 | 7.0 | 10.4 | 0.00 | 0.00 | 0.00 | 83 | 1012.2 |
| 20260503213217 | 60 | 22 | 5.2 | 10.4 | 0.00 | 0.00 | 0.00 | 83 | 1012.2 |
| 20260503211707 | 60 | 11 | 6.1 | 10.4 | 0.00 | 0.00 | 0.00 | 84 | 1012.3 |
| 20260503210711 | 60 | 15 | 5.2 | 9.6 | 0.00 | 0.00 | 0.00 | 83 | 1012.3 |
| 20260503210215 | 60 | 11 | 6.1 | 9.6 | 0.00 | 0.00 | 0.00 | 83 | 1012.3 |
| 20260503205707 | 60 | 9 | 6.1 | 9.6 | 0.00 | 0.00 | 0.00 | 82 | 1012.2 |
| 20260503205210 | 60 | 16 | 6.1 | 9.6 | 0.00 | 0.00 | 0.00 | 82 | 1012.3 |
| 20260503204717 | 61 | 25 | 5.2 | 9.6 | 0.00 | 0.00 | 0.00 | 82 | 1012.3 |
| 20260503204213 | 61 | 30 | 4.3 | 12.2 | 0.00 | 0.00 | 0.00 | 81 | 1012.3 |
| 20260503202210 | 62 | 47 | 5.2 | 13.9 | 0.00 | 0.00 | 0.00 | 77 | 1012.1 |
| 20260503201216 | 62 | 47 | 7.0 | 13.9 | 0.00 | 0.00 | 0.00 | 77 | 1012.0 |
| 20260503200712 | 62 | 9 | 7.0 | 13.9 | 0.00 | 0.00 | 0.00 | 76 | 1012.1 |
| 20260503200214 | 62 | 64 | 7.8 | 13.9 | 0.00 | 0.00 | 0.00 | 76 | 1012.0 |
| 20260503195715 | 62 | 52 | 7.0 | 10.4 | 0.00 | 0.00 | 0.00 | 76 | 1012.0 |
| 20260503195216 | 62 | 59 | 6.1 | 10.4 | 0.00 | 0.00 | 0.00 | 76 | 1012.0 |
| 20260503194715 | 62 | 40 | 4.3 | 13.0 | 0.00 | 0.00 | 0.00 | 76 | 1012.0 |
| 20260503194205 | 62 | 8 | 5.2 | 13.0 | 0.00 | 0.00 | 0.00 | 76 | 1012.0 |
| 20260503193210 | 62 | 54 | 5.2 | 13.9 | 0.00 | 0.00 | 0.00 | 76 | 1011.9 |
| 20260503192709 | 62 | 50 | 7.8 | 13.9 | 0.00 | 0.00 | 0.00 | 77 | 1011.7 |
| 20260503192207 | 62 | 70 | 7.0 | 11.3 | 0.00 | 0.00 | 0.00 | 77 | 1011.7 |
| 20260503191715 | 62 | 46 | 7.8 | 14.8 | 0.00 | 0.00 | 0.00 | 77 | 1011.7 |
| 20260503191217 | 62 | 46 | 6.1 | 14.8 | 0.00 | 0.00 | 0.00 | 77 | 1012.0 |
| 20260503190712 | 62 | 35 | 7.8 | 11.3 | 0.00 | 0.00 | 0.00 | 77 | 1011.9 |